Home > Weather > Gibraltar > Past weeks

Flag for Gibraltar Weather for the Past 2 Weeks in Gibraltar, Gibraltar

Now
64 °F

Broken clouds.


Feels Like: 64 °F
Forecast: 61 / 67 °F
Wind: 8 mph from Southeast

Location: Gibraltar Airport

Current Time: May 5, 2016 at 7:07:47 PM

Latest Report: May 5, 2016 at 5:50 PM


Visibility: 4 mi

Pressure: 29.92 "Hg

Humidity: 94%

Dew Point: 63 °F

Location of GibraltarLocation

Historic Weather in Gibraltar — Graph

°F

Gibraltar Temperature Yesterday

Maximum temperature yesterday: 68 °F (at 11:50 AM)
Minimum temperature yesterday: 64 °F (at 1:50 AM)
Average temperature yesterday: 66 °F

High & Low Weather Summary for the Past Weeks

 TemperatureHumidityPressure
High73 °F (Apr 23, 3:50 PM)100% (Apr 26, 3:50 AM)30.21 "Hg (Apr 26, 3:50 AM)
Low54 °F (Apr 21, 3:50 AM)38% (Apr 22, 2:50 PM)29.86 "Hg (Apr 26, 8:50 PM)
Average64 °F74%30.02 "Hg
* Reported Apr 20 5:50 PM — May 5 5:50 PM, Gibraltar, Weather by CustomWeather, © 2016

Note: Actual official high and low records may vary slightly from our data, if they occured in-between our weather recording intervals... More about our weather records

Advertising

Gibraltar Weather History for the Previous 24 Hours

Scroll right to see more
 ConditionsComfort  
Time TempWeatherWind HumidityBarometerVisibility
5:50 PM
Thu, May 5
64 °FBroken clouds.8 mph94%29.92 "Hg4 mi
4:50 PM64 °FBroken clouds.12 mph88%29.92 "Hg6 mi
3:50 PM64 °FBroken clouds.12 mph88%29.92 "Hg6 mi
2:50 PM63 °FDrizzle. Broken clouds.13 mph100%29.92 "Hg4 mi
1:50 PM63 °FDrizzle. Overcast.14 mph94%29.92 "Hg5 mi
12:50 PM63 °FDrizzle. Broken clouds.14 mph100%29.92 "Hg4 mi
11:50 AM66 °FScattered clouds.12 mph78%29.92 "HgN/A
10:50 AM64 °FBroken clouds.14 mph88%29.92 "HgN/A
9:50 AM63 °FBroken clouds.14 mph100%29.92 "HgN/A
8:50 AM63 °FSprinkles. Partly sunny.15 mph94%29.92 "HgN/A
7:50 AM63 °FSprinkles. Overcast.16 mph94%29.89 "HgN/A
6:50 AM64 °FPartly cloudy.12 mph88%29.92 "HgN/A
5:50 AM64 °FPartly cloudy.15 mph88%29.92 "HgN/A
4:50 AM64 °FPartly cloudy.17 mph88%29.95 "HgN/A
3:50 AM64 °FPartly cloudy.18 mph83%29.95 "HgN/A
2:50 AM64 °FOvercast.20 mph83%29.95 "HgN/A
1:50 AM64 °FOvercast.20 mph83%29.98 "HgN/A
12:50 AM64 °FOvercast.20 mph83%29.98 "HgN/A
11:50 PM
Wed, May 4
64 °FOvercast.17 mph83%30.04 "HgN/A
10:50 PM64 °FClear.13 mph83%30.01 "Hg10 mi
9:50 PM64 °FSunny.12 mph83%30.01 "Hg10 mi
8:50 PM64 °FBroken clouds.12 mph83%30.01 "HgN/A
7:50 PM66 °FBroken clouds.14 mph78%30.04 "HgN/A
Weather by CustomWeather, © 2016

See weather overviewHow to use our weather pages